Location: Buttermere
(51.3333°N, 1.5167°W)
Time: 12:17:06
(UTC+00:00)

Cosmos 1844 Rocket - Pass Details

Date: 18 September 2020
Orbit: 823 x 846 km, 71.0° (Epoch: 22 October)

Event Time Altitude Azimuth Distance (km) Brightness Sun altitude
Rises 19:39:26 0° 179° (S) 3,346 5.6 -14.1°
Reaches altitude 10° 19:42:01 10° 171° (S) 2,419 4.8 -14.4°
Maximum altitude 19:46:59 35° 107° (ESE) 1,314 3.2 -15.2°
Drops below altitude 10° 19:51:59 10° 44° (NE) 2,444 4.9 -15.9°
Sets 19:54:37 0° 35° (NE) 3,386 5.7 -16.3°
